KI5FU-13 Weather Reports


time (UTC)temp
C
wind
direction
speed
KPH
gust
KPH
rain 1hr
cm
rain 24hr
cm
rain mn
cm
humidity
%
barometer
mb
20260506184534 29 109 6.4 14.5 0.00 0.00 0.00 64 1009.4
20260506183029 28 103 4.8 14.5 0.00 0.00 0.00 65 1009.7
20260506181528 28 65 1.6 6.4 0.00 0.00 0.00 65 1009.9
20260506180027 28 61 1.6 8.0 0.00 0.00 0.00 65 1010.0
20260506174525 27 117 1.6 9.7 0.00 0.00 0.00 65 1010.1
20260506173021 27 114 4.8 9.7 0.00 0.00 0.00 66 1010.2
20260506171522 27 84 3.2 9.7 0.00 0.00 0.00 66 1010.4
20260506170017 26 69 3.2 9.7 0.00 0.00 0.00 66 1010.7
20260506164516 26 68 3.2 8.0 0.00 0.00 0.00 66 1011.0
20260506163014 26 104 1.6 6.4 0.00 0.00 0.00 66 1010.8
20260506161511 26 115 3.2 9.7 0.00 0.00 0.00 67 1010.6
20260506160011 26 134 3.2 12.9 0.00 0.00 0.00 67 1010.1
20260506154507 26 113 6.4 11.3 0.00 0.00 0.00 67 1009.4
20260506153008 26 119 3.2 6.4 0.00 0.00 0.00 68 1009.5
20260506151501 25 99 3.2 11.3 0.00 0.00 0.00 70 1009.7
20260506150100 25 123 6.4 11.3 0.00 0.00 0.00 74 1009.3
20260506144606 25 150 6.4 11.3 0.00 0.00 0.00 76 1009.2
20260506143053 24 144 6.4 17.7 0.00 0.00 0.00 77 1009.1
20260506141550 24 142 9.7 14.5 0.00 0.00 0.00 77 1008.9
20260506140048 24 130 8.0 14.5 0.00 0.00 0.00 77 1008.5
20260506134548 23 116 6.4 14.5 0.00 0.00 0.00 77 1008.7
20260506133049 23 150 4.8 11.3 0.00 0.00 0.00 77 1008.7
20260506131546 23 136 4.8 11.3 0.00 0.00 0.00 77 1008.6
20260506130049 23 110 4.8 11.3 0.00 0.00 0.00 77 1008.7
20260506124544 23 132 3.2 8.0 0.00 0.00 0.00 76 1008.6
20260506123043 23 130 3.2 4.8 0.00 0.00 0.00 76 1008.5
20260506121542 23 130 1.6 8.0 0.00 0.00 0.00 76 1008.5
20260506120043 23 148 0.0 3.2 0.00 0.00 0.00 76 1008.5
20260506114542 23 148 0.0 8.0 0.00 0.00 0.00 76 1008.4
20260506113042 23 151 3.2 11.3 0.00 0.00 0.00 76 1008.2
20260506111540 23 150 6.4 14.5 0.00 0.00 0.00 75 1008.0
20260506110042 23 139 4.8 12.9 0.00 0.00 0.00 75 1008.2
20260506104546 23 150 3.2 9.7 0.00 0.00 0.00 75 1008.0
20260506103040 23 167 6.4 9.7 0.00 0.00 0.00 74 1007.8
20260506101539 23 163 4.8 9.7 0.00 0.00 0.00 74 1007.8
20260506100038 23 169 3.2 8.0 0.00 0.00 0.00 73 1007.7
20260506094537 23 167 6.4 8.0 0.00 0.00 0.00 73 1007.7
20260506093040 23 170 3.2 6.4 0.00 0.00 0.00 73 1007.8
20260506091535 23 176 4.8 8.0 0.00 0.00 0.00 73 1007.7
20260506090033 23 173 4.8 9.7 0.00 0.00 0.00 72 1007.7
20260506084536 23 167 6.4 12.9 0.00 0.00 0.00 72 1007.6
20260506083032 23 161 6.4 14.5 0.00 0.00 0.00 72 1007.6
20260506081529 23 168 8.0 12.9 0.00 0.00 0.00 71 1007.4
20260506073025 23 153 8.0 16.1 0.00 0.00 0.00 71 1008.1
20260506071523 23 164 8.0 16.1 0.00 0.00 0.00 71 1008.3
20260506061502 23 163 11.3 19.3 0.00 0.00 0.00 71 1008.4
20260506044553 24 175 11.3 17.7 0.00 0.00 0.00 70 1008.6
20260506043050 24 160 11.3 20.9 0.00 0.00 0.00 70 1008.5
20260506041554 24 165 11.3 17.7 0.00 0.00 0.00 70 1008.5
20260506040049 24 148 4.8 12.9 0.00 0.00 0.00 70 1008.6
20260506034553 24 147 3.2 11.3 0.00 0.00 0.00 70 1008.7
20260506033056 24 132 8.0 14.5 0.00 0.00 0.00 70 1008.4
20260506031547 24 142 4.8 11.3 0.00 0.00 0.00 70 1008.3
20260506030057 25 140 4.8 16.1 0.00 0.00 0.00 70 1008.0
20260506024557 25 143 6.4 12.9 0.00 0.00 0.00 70 1007.7
20260506023046 25 146 4.8 9.7 0.00 0.00 0.00 70 1007.6
20260506021555 25 120 3.2 8.0 0.00 0.00 0.00 70 1007.5
20260506020044 25 149 6.4 16.1 0.00 0.00 0.00 70 1007.3
20260506014544 25 157 4.8 16.1 0.00 0.00 0.00 70 1007.2
20260506013046 25 142 6.4 17.7 0.00 0.00 0.00 69 1006.8
20260506011607 26 129 11.3 24.1 0.00 0.00 0.00 69 1006.6
20260506010042 26 135 14.5 27.4 0.00 0.00 0.00 68 1006.4
20260506004545 26 144 14.5 22.5 0.00 0.00 0.00 67 1006.4
20260506003043 26 137 14.5 25.7 0.00 0.00 0.00 67 1006.2
20260506001542 27 155 9.7 19.3 0.00 0.00 0.00 66 1006.1
20260506000046 27 134 14.5 24.1 0.00 0.00 0.00 66 1006.0
20260505234539 27 145 14.5 27.4 0.00 0.00 0.00 65 1005.9
20260505233037 27 159 16.1 33.8 0.00 0.00 0.00 64 1005.8
20260505231541 28 138 16.1 27.4 0.00 0.00 0.00 63 1005.8
20260505230035 28 140 14.5 27.4 0.00 0.00 0.00 62 1005.7
20260505224534 29 145 16.1 27.4 0.00 0.00 0.00 61 1005.7
20260505223035 29 140 19.3 29.0 0.00 0.00 0.00 60 1005.7
20260505221534 29 151 11.3 17.7 0.00 0.00 0.00 60 1005.7
20260505220046 29 161 19.3 29.0 0.00 0.00 0.00 60 1006.0
20260505214533 29 360 14.5 27.4 0.00 0.00 0.00 59 1006.0
20260505213031 30 360 17.7 24.1 0.00 0.00 0.00 59 1006.2
20260505211524 30 155 14.5 22.5 0.00 0.00 0.00 59 1006.5
20260505210023 30 96 12.9 27.4 0.00 0.00 0.00 60 1006.6
20260505204523 29 180 14.5 24.1 0.00 0.00 0.00 60 1007.0
20260505203018 29 173 17.7 25.7 0.00 0.00 0.00 60 1007.1
20260505201517 28 194 12.9 24.1 0.00 0.00 0.00 61 1007.3
20260505200011 28 186 16.1 22.5 0.00 0.00 0.00 62 1007.6
20260505194518 28 194 14.5 22.5 0.00 0.00 0.00 63 1007.8
20260505193006 28 159 11.3 17.7 0.00 0.00 0.00 64 1008.2
20260505191503 27 172 8.0 16.1 0.00 0.00 0.00 65 1008.3
20260505190100 27 136 11.3 16.1 0.00 0.00 0.00 65 1008.6